Weather in Patiala

India     30°19′33″N   76°24′04″E
temp.,
°C
wind,
m/s
gust,
m/s
humid.,
%
clouds,
%
prec.,
mm/h
press.,
hPa
HPBL,
m
17 june, thu
thu1723:30+29nne23540 0.0 1000120
02:30+25ene24700 2.9 1000107
05:30+26e24730 2.9 999178
08:30+30ese22570 0.0 1000495
11:30+36se11385 0.0 10001816
14:30+38n122858 0.0 9972762
17:30+39nne33205 0.0 9943175
20:30+35e473786 0.0 997408
18 june, fri
fri1823:30+31se6105632 0.0 999575
02:30+30se58572 0.0 998495
05:30+28ese47635 0.0 999351
08:30+31se555313 0.0 1000817
11:30+36sse323619 0.0 9991757
14:30+40e232265 0.0 9963776
17:30+36se7836100 0.0 996826
20:30+31se7115389 0.0 998493
19 june, sat
sat1923:30+29se7116247 0.0 1000622
02:30+27se696618 0.0 999540
05:30+26se587515 0.0 1000494
08:30+30se55611 0.0 1001765
11:30+35sse43416 0.0 10001478
14:30+40s132621 0.0 9972450
17:30+41ene361816 0.0 9953287
20:30+38sw2422100 0.0 997238
20 june, sun
sun2023:30+36ese242487 0.0 998168
02:30+32ese684899 0.0 999553
05:30+29ese576013 0.0 1000414
08:30+32se44504 0.0 1001651
11:30+38nw1231100 0.0 10001859
14:30+41ne462287 0.0 9963405
17:30+33e7103896 0.7 996262
20:30+31w9124790 0.3 999442
21 june, mon
mon2123:30+35s133495 0.3 1000117
02:30+32ese224687 1.4 1001138
05:30+29se125888 1.8 1001120
08:30+31ese334934 0.0 1003524
11:30+37s44335 0.0 10022095
14:30+39sw442884 0.1 9992689
17:30+37w34313 3.1 9991052
20:30+35w22330 0.8 100065